DW6513 Weather Reports


time (UTC)temp
F
wind
direction
speed
knots
gust
knots
rain 1hr
in
rain 24hr
in
rain mn
in
humidity
%
barometer
mb
20260506181303 64 321 2.6 8.7 0.00 0.07 0.19 47 1016.2
20260506175803 61 257 4.3 13.0 0.00 0.07 0.19 54 1016.4
20260506175306 61 321 5.2 13.0 0.00 0.07 0.19 54 1016.4
20260506174304 60 12 2.6 13.0 0.00 0.07 0.19 57 1016.4
20260506173804 60 347 1.7 13.0 0.00 0.07 0.19 58 1016.4
20260506172803 58 10 2.6 6.1 0.00 0.07 0.19 61 1016.6
20260506172306 58 304 4.3 7.8 0.00 0.07 0.19 64 1016.6
20260506171803 57 190 5.2 10.4 0.00 0.07 0.19 63 1016.6
20260506171303 57 0 4.3 10.4 0.00 0.07 0.19 63 1016.6
20260506170803 57 347 2.6 7.0 0.00 0.07 0.19 65 1016.3
20260506170303 57 22 2.6 7.8 0.00 0.07 0.19 65 1016.3
20260506165803 57 347 1.7 4.3 0.00 0.07 0.19 68 1016.3
20260506165305 57 340 1.7 4.3 0.00 0.07 0.19 68 1016.3
20260506164804 57 303 2.6 4.3 0.00 0.07 0.19 70 1016.5
20260506164303 56 303 1.7 7.0 0.00 0.07 0.19 69 1016.5
20260506163804 56 100 1.7 7.0 0.00 0.07 0.19 71 1016.5
20260506163304 56 77 2.6 6.1 0.00 0.07 0.19 71 1016.5
20260506162803 55 347 1.7 7.0 0.00 0.07 0.19 73 1016.3
20260506162306 55 214 1.7 7.0 0.00 0.07 0.19 74 1016.3
20260506161803 55 100 0.9 6.1 0.00 0.07 0.19 76 1016.3
20260506161304 55 347 0.9 4.3 0.00 0.07 0.19 77 1016.3
20260506160803 54 123 1.7 5.2 0.00 0.07 0.19 78 1016.2
20260506160303 54 143 1.7 4.3 0.00 0.07 0.19 78 1016.2
20260506155804 54 10 0.9 2.6 0.00 0.07 0.19 79 1016.2
20260506155306 54 61 1.7 4.3 0.00 0.07 0.19 80 1016.2
20260506154803 54 235 1.7 7.8 0.00 0.07 0.19 81 1015.7
20260506154303 54 29 1.7 7.8 0.00 0.07 0.19 81 1015.7
20260506153803 54 303 1.7 4.3 0.00 0.07 0.19 82 1015.7
20260506153304 53 149 0.9 2.6 0.00 0.07 0.19 82 1015.7
20260506152803 53 123 0.9 4.3 0.00 0.07 0.19 83 1015.9
20260506152305 53 290 1.7 4.3 0.00 0.07 0.19 83 1015.9
20260506151804 53 145 1.7 7.8 0.00 0.07 0.19 84 1015.9
20260506151303 53 213 1.7 7.8 0.00 0.07 0.19 84 1015.9
20260506150304 52 163 1.7 7.0 0.00 0.07 0.19 85 1015.6
20260506145305 52 100 1.7 2.6 0.00 0.07 0.19 85 1015.6
20260506144804 52 347 1.7 2.6 0.00 0.07 0.19 88 1015.8
20260506144303 51 291 1.7 10.4 0.00 0.07 0.19 88 1015.8
20260506143803 51 303 1.7 7.0 0.00 0.07 0.19 88 1015.8
20260506142804 51 347 1.7 6.1 0.00 0.07 0.19 90 1015.8
20260506141803 50 10 1.7 4.3 0.00 0.07 0.19 91 1015.8
20260506140803 50 280 1.7 8.7 0.00 0.07 0.19 92 1016.0
20260506135306 50 308 2.6 5.2 0.00 0.07 0.19 93 1016.0
20260506134804 50 10 1.7 4.3 0.00 0.07 0.19 94 1016.0
20260506134304 49 100 0.9 4.3 0.00 0.10 0.19 94 1016.0
20260506133303 49 347 0.9 1.7 0.00 0.10 0.19 95 1016.0
20260506132804 49 347 0.9 0.0 0.00 0.13 0.19 95 1015.6
20260506132307 48 145 0.9 2.6 0.00 0.16 0.19 96 1015.6
20260506131804 48 303 0.9 2.6 0.00 0.16 0.19 96 1015.6
20260506131304 48 316 0.9 2.6 0.00 0.16 0.19 96 1015.6
20260506130803 48 303 0.0 2.6 0.00 0.16 0.19 96 1015.5
20260506125803 48 123 0.9 0.0 0.00 0.16 0.19 96 1015.5
20260506125305 48 276 0.9 0.0 0.00 0.16 0.19 96 1015.5
20260506124303 47 310 0.9 1.7 0.00 0.16 0.19 96 1015.5
20260506123304 47 224 0.9 5.2 0.00 0.16 0.19 96 1015.5
20260506122305 47 90 0.9 0.0 0.00 0.16 0.19 96 1015.0
20260506121303 47 313 0.9 2.6 0.00 0.16 0.19 96 1015.0
20260506120303 47 355 0.9 4.3 0.00 0.16 0.19 97 1015.1
20260506115804 47 325 1.7 5.2 0.00 0.16 0.19 97 1015.1
20260506115306 47 347 0.9 5.2 0.00 0.16 0.19 97 1015.1
20260506114810 47 347 0.9 5.2 0.00 0.16 0.19 97 1014.8
20260506114304 47 145 0.9 4.3 0.00 0.16 0.19 96 1014.8
20260506113804 47 145 0.0 0.0 0.00 0.16 0.19 97 1014.8
20260506113303 47 29 0.0 0.0 0.00 0.16 0.19 96 1014.8
20260506112804 47 347 0.0 4.3 0.00 0.19 0.19 96 1014.3
20260506112306 47 132 0.0 4.3 0.00 0.19 0.19 96 1014.3
20260506111804 47 347 0.0 0.0 0.00 0.19 0.19 96 1014.3
20260506111303 47 145 0.0 0.0 0.00 0.19 0.19 96 1014.3
20260506110803 47 123 0.0 1.7 0.00 0.19 0.19 96 1014.1
20260506105804 47 123 0.9 2.6 0.00 0.19 0.19 96 1014.1
20260506104304 47 145 0.0 2.6 0.00 0.19 0.19 97 1013.2
20260506103804 47 145 0.0 0.0 0.00 0.19 0.19 97 1013.2
20260506103303 47 145 0.9 0.0 0.00 0.19 0.19 97 1013.2
20260506102803 47 145 0.9 5.2 0.00 0.19 0.19 97 1013.3
20260506102305 47 134 0.9 4.3 0.00 0.19 0.19 97 1013.3
20260506101304 47 347 0.0 0.0 0.00 0.19 0.19 97 1013.3
20260506100804 47 123 0.0 0.0 0.00 0.19 0.19 97 1012.8
20260506100303 47 10 0.0 0.0 0.00 0.19 0.19 97 1012.8
20260506095804 47 190 0.0 4.3 0.00 0.19 0.19 97 1012.8
20260506094803 47 347 0.0 1.7 0.00 0.19 0.19 97 1013.3
20260506094303 47 16 0.0 0.0 0.00 0.19 0.19 97 1013.3
20260506093303 47 316 0.0 0.0 0.00 0.19 0.19 97 1013.3
20260506092804 47 347 0.0 0.0 0.00 0.19 0.19 98 1013.8
20260506092305 47 83 0.0 0.0 0.00 0.19 0.19 98 1013.8
20260506091804 46 10 0.0 0.0 0.00 0.19 0.19 98 1013.8
20260506091304 46 193 0.0 0.0 0.00 0.19 0.19 98 1013.8
20260506090804 46 325 0.0 0.0 0.00 0.19 0.19 98 1013.2
20260506090304 46 42 0.0 4.3 0.00 0.19 0.19 98 1013.2
20260506085804 46 145 0.0 4.3 0.00 0.19 0.19 98 1013.2
20260506085305 46 347 0.9 0.0 0.00 0.19 0.19 98 1013.2
20260506083803 46 347 0.0 1.7 0.00 0.19 0.19 98 1013.5
20260506083304 46 6 0.0 0.0 0.00 0.19 0.19 98 1013.5
20260506082305 47 347 0.0 1.7 0.00 0.19 0.19 98 1013.2
20260506081804 47 100 0.0 1.7 0.00 0.19 0.19 98 1013.2
20260506080804 47 190 0.9 4.3 0.00 0.19 0.19 98 1012.6
20260506073304 47 240 0.0 0.0 0.00 0.19 0.19 98 1012.6
20260506072804 47 123 0.0 0.0 0.00 0.19 0.19 98 1013.6
20260506072305 47 65 0.9 4.3 0.00 0.19 0.19 98 1013.6
20260506071804 47 325 0.0 0.0 0.00 0.19 0.19 98 1013.6
20260506071304 47 23 0.9 1.7 0.00 0.19 0.19 98 1013.6
20260506070804 47 10 0.9 4.3 0.00 0.19 0.19 98 1013.4
20260506070304 47 0 0.9 4.3 0.00 0.19 0.19 97 1013.4
20260506062305 47 2 0.0 0.0 0.00 0.19 0.19 97 1013.0
20260506061804 47 145 0.0 0.0 0.00 0.19 0.19 97 1013.0
20260506061304 47 145 0.0 0.0 0.00 0.19 0.19 97 1013.0
20260506060804 47 123 0.0 0.0 0.00 0.19 0.19 97 1013.1
20260506060304 47 176 0.9 2.6 0.00 0.19 0.19 97 1013.1
20260506044802 46 10 0.0 0.0 0.00 0.19 0.19 96 1013.1
20260506043803 46 347 0.0 0.0 0.00 0.19 0.19 96 1013.1
20260506043303 46 347 0.0 0.0 0.00 0.19 0.19 96 1013.1
20260506042803 46 123 0.0 0.0 0.00 0.19 0.19 96 1012.9
20260506042305 46 145 0.9 4.3 0.00 0.19 0.19 96 1012.9
20260506041802 46 145 0.0 2.6 0.00 0.19 0.19 95 1012.9
20260506041302 46 190 0.0 0.0 0.00 0.19 0.19 95 1012.9
20260506040803 46 190 0.9 4.3 0.00 0.19 0.19 95 1013.1
20260506034802 46 33 0.0 0.0 0.00 0.19 0.19 95 1013.4
20260506034302 46 3 0.0 1.7 0.00 0.19 0.19 95 1013.4
20260506033802 46 280 0.0 1.7 0.00 0.19 0.19 95 1013.4
20260506033302 46 340 0.0 0.0 0.00 0.19 0.19 95 1013.4
20260506032802 46 347 0.0 0.0 0.00 0.19 0.19 95 1012.6
20260506032305 46 145 0.0 0.0 0.00 0.19 0.19 95 1012.6
20260506031802 46 145 0.0 0.0 0.00 0.19 0.19 95 1012.6
20260506031302 46 115 0.0 0.0 0.00 0.19 0.19 95 1012.6
20260506030802 46 100 0.0 0.0 0.00 0.19 0.19 95 1012.2
20260506030302 46 145 0.0 0.0 0.00 0.19 0.19 95 1012.2
20260506025802 46 100 0.0 0.0 0.00 0.19 0.19 95 1012.2
20260506025305 46 145 0.0 0.0 0.00 0.19 0.19 95 1012.2
20260506024802 46 145 0.0 0.0 0.00 0.19 0.19 95 1012.3
20260506024302 46 72 0.0 1.7 0.00 0.19 0.19 95 1012.3
20260506023803 46 190 0.0 0.0 0.00 0.19 0.19 95 1012.3
20260506023302 46 175 0.0 0.0 0.00 0.19 0.19 95 1012.3
20260506022802 46 347 0.0 0.0 0.00 0.19 0.19 95 1012.3
20260506020802 46 123 0.0 0.0 0.07 0.19 0.19 94 1012.5
20260506020303 46 2 0.0 0.0 0.07 0.19 0.19 95 1012.5
20260506015803 46 145 0.0 0.0 0.07 0.19 0.19 94 1012.5
20260506015305 46 8 0.0 0.0 0.07 0.19 0.19 94 1012.5
20260506014802 46 10 0.0 0.0 0.07 0.19 0.19 94 1012.4
20260506014302 46 135 0.9 4.3 0.07 0.19 0.19 94 1012.4
20260506013302 46 116 0.0 0.0 0.07 0.19 0.19 93 1012.4
20260506012802 46 10 0.0 1.7 0.07 0.19 0.19 93 1011.6
20260506012307 46 330 0.9 0.0 0.07 0.19 0.19 93 1011.6
20260506011302 46 17 0.9 4.3 0.04 0.16 0.16 93 1011.6
20260506005802 46 347 0.9 5.2 0.00 0.13 0.13 93 1011.8
20260506005305 46 357 1.7 4.3 0.00 0.13 0.13 93 1011.8
20260506004802 46 347 2.6 5.2 0.00 0.13 0.13 93 1012.0
20260506004303 46 311 2.6 7.8 0.00 0.13 0.13 93 1012.0
20260506003802 47 280 2.6 6.1 0.00 0.13 0.13 93 1012.0
20260506003302 47 243 0.9 4.3 0.00 0.13 0.13 93 1012.0
20260506002802 47 55 0.0 2.6 0.00 0.13 0.13 93 1010.8
20260506002305 47 347 0.0 0.0 0.00 0.13 0.13 93 1010.8
20260506001802 47 347 1.7 4.3 0.00 0.13 0.13 93 1010.8
20260506001303 47 107 1.7 2.6 0.00 0.13 0.13 93 1010.8
20260506000803 47 303 0.9 4.3 0.00 0.13 0.13 93 1010.7
20260506000302 48 318 0.0 2.6 0.00 0.13 0.13 93 1010.7
20260505235802 47 123 0.9 0.0 0.00 0.13 0.13 93 1010.7
20260505235305 48 347 0.9 4.3 0.00 0.13 0.13 93 1010.7
20260505234802 48 347 1.7 1.7 0.00 0.13 0.13 92 1009.8
20260505234305 50 347 0.0 0.0 0.00 0.13 0.13 88 1010.0
20260505233304 50 0 0.0 0.0 0.00 0.13 0.13 88 1010.0
20260505223803 50 190 0.9 2.6 0.00 0.13 0.13 87 1010.0
20260505222802 50 77 0.9 5.2 0.00 0.13 0.13 87 1009.5
20260505221803 50 145 0.9 0.0 0.00 0.13 0.13 88 1009.5
20260505221303 49 325 1.7 4.3 0.00 0.13 0.13 88 1009.5
20260505220803 49 325 1.7 4.3 0.00 0.13 0.13 87 1009.9
20260505220303 49 75 1.7 5.2 0.00 0.13 0.13 87 1009.9
20260505215305 49 318 0.9 4.3 0.00 0.13 0.13 87 1009.9
20260505214802 49 123 0.9 0.0 0.00 0.13 0.13 87 1009.6
20260505213802 50 145 0.0 0.0 0.00 0.13 0.13 87 1009.6
20260505213302 50 276 0.9 2.6 0.00 0.13 0.13 88 1009.6
20260505212803 50 303 0.9 2.6 0.00 0.13 0.13 89 1010.3
20260505212305 49 347 0.9 4.3 0.00 0.13 0.13 87 1010.3
20260505211802 49 325 1.7 0.0 0.00 0.13 0.13 87 1010.3
20260505211303 49 356 2.6 5.2 0.00 0.13 0.13 87 1010.3
20260505210302 49 347 1.7 4.3 0.00 0.13 0.13 86 1010.8
20260505205305 49 256 2.6 7.8 0.00 0.13 0.13 85 1010.8
20260505204802 49 303 2.6 7.8 0.00 0.13 0.13 84 1010.4
20260505204303 49 6 2.6 6.1 0.00 0.13 0.13 83 1010.4
20260505203803 50 325 2.6 4.3 0.00 0.13 0.13 82 1010.4
20260505203302 50 340 1.7 7.0 0.00 0.13 0.13 82 1010.4
20260505202802 50 303 0.9 7.0 0.00 0.13 0.13 82 1011.0
20260505202306 50 123 0.9 4.3 0.00 0.13 0.13 82 1011.0
20260505201803 50 145 0.9 0.0 0.00 0.13 0.13 81 1011.0
20260505201302 50 331 1.7 2.6 0.00 0.13 0.13 80 1011.0
20260505200803 50 10 2.6 4.3 0.00 0.13 0.13 79 1011.0
20260505200302 50 347 2.6 4.3 0.00 0.13 0.13 78 1011.0
20260505195803 51 77 5.2 4.3 0.00 0.13 0.13 78 1011.0
20260505195305 50 347 6.1 13.0 0.00 0.13 0.13 78 1011.0
20260505194803 51 325 5.2 7.0 0.00 0.13 0.13 78 1011.0
20260505194302 51 186 5.2 11.3 0.00 0.13 0.13 77 1011.0
20260505193803 51 347 5.2 11.3 0.00 0.13 0.13 77 1011.0
20260505192803 53 257 1.7 13.9 0.00 0.13 0.13 75 1010.1
20260505192305 53 331 1.7 4.3 0.00 0.13 0.13 74 1010.1
20260505191803 53 167 2.6 4.3 0.00 0.16 0.13 74 1010.1
20260505191303 53 234 5.2 7.0 0.00 0.16 0.13 73 1010.1
20260505190803 53 347 4.3 8.7 0.00 0.16 0.13 72 1010.0
20260505190302 54 243 1.7 8.7 0.00 0.16 0.13 72 1010.0
20260505185305 54 53 1.7 2.6 0.00 0.16 0.13 74 1010.0
20260505184802 54 190 1.7 1.7 0.00 0.16 0.13 74 1010.4
20260505184302 54 58 1.7 7.0 0.00 0.16 0.13 74 1010.4
20260505183803 54 303 0.9 5.2 0.00 0.16 0.13 74 1010.4
20260505183303 54 340 0.9 5.2 0.00 0.16 0.13 74 1010.4
20260505182803 54 257 0.9 1.7 0.00 0.16 0.13 75 1011.0
20260505182305 53 232 1.7 4.3 0.00 0.16 0.13 75 1011.0